WB7OXJ Shelton WA US current weather conditions

sailwx.info

Wind from 297

Air temperature 10.0° C
Dewpoint 9.4° C

Last reported at 2020-Oct-01 15:01 UTC.
Time now 2020-Oct-01 16:14 UTC

Location: N 47°17' W 123°03'.
View on Google Maps.

See reports from other nearby stations

  
Tides and Currents Weather Stations Pressure Air Temp Water Temp Dewpoint Dewpoint Depression Visibility Wind Speed Wind Dir Waves Ship Positions
date/time (UTC)wind fromknots sea level pressurealtimeterstation pressurevisibilityair tempwater tempwave heightnotes
2020-Oct-01 15:01 297 10.0
2020-Oct-01 14:46 297 10.0
2020-Oct-01 14:31 297 0 gusting 2 10.0
2020-Oct-01 14:16 297 10.6
2020-Oct-01 14:01 297 10.6
2020-Oct-01 13:46 297 10.6
2020-Oct-01 13:31 297 11.1
2020-Oct-01 13:15 297 11.1
2020-Oct-01 13:00 297 11.1
2020-Oct-01 12:46 297 11.1
2020-Oct-01 12:30 297 11.1
2020-Oct-01 12:15 297 11.1
2020-Oct-01 12:01 297 11.7
2020-Oct-01 11:46 297 11.7
2020-Oct-01 11:30 297 11.7
2020-Oct-01 11:15 209 11.7
2020-Oct-01 11:00 202 11.7
2020-Oct-01 10:46 202 11.7
2020-Oct-01 10:31 202 12.2
2020-Oct-01 10:15 202 12.2
2020-Oct-01 10:00 202 12.2
2020-Oct-01 09:45 202 12.2
2020-Oct-01 09:30 202 12.2
2020-Oct-01 09:15 202 12.8
2020-Oct-01 09:00 244 12.8
2020-Oct-01 08:45 244 12.8
2020-Oct-01 08:30 244 12.8
2020-Oct-01 08:15 244 12.8
2020-Oct-01 08:00 244 13.3
2020-Oct-01 07:45 244 13.3
2020-Oct-01 07:30 244 13.3
2020-Oct-01 07:15 244 13.3
2020-Oct-01 07:00 244 13.3
2020-Oct-01 06:47 244 13.3
2020-Oct-01 06:33 244 13.3
2020-Oct-01 06:16 244 13.3
2020-Oct-01 06:02 243 13.3
2020-Oct-01 05:47 243 13.9
2020-Oct-01 05:34 243 13.9
2020-Oct-01 05:17 243 13.9
2020-Oct-01 05:01 243 13.9
2020-Oct-01 04:47 243 14.4
2020-Oct-01 04:33 243 15.0
2020-Oct-01 04:16 243 15.0
2020-Oct-01 04:04 243 15.0
2020-Oct-01 03:48 243 15.6
2020-Oct-01 03:32 243 15.6
2020-Oct-01 03:17 243 16.1
2020-Oct-01 03:01 281 16.7
2020-Oct-01 02:46 281 17.2
2020-Oct-01 02:31 281 17.2
2020-Oct-01 02:16 281 17.8
2020-Oct-01 02:01 281 17.8
2020-Oct-01 01:46 281 18.3
2020-Oct-01 01:31 281 18.9
2020-Oct-01 01:16 281 19.4
2020-Oct-01 01:01 252 20.0
2020-Oct-01 00:46 252 20.6
2020-Oct-01 00:31 252 21.1
2020-Oct-01 00:16 252 21.7
2020-Oct-01 00:02 252 22.2
2020-Sep-30 23:46 144 22.8
2020-Sep-30 23:33 132 22.8
2020-Sep-30 23:16 132 22.8
2020-Sep-30 23:00 111 0 gusting 3 22.8
2020-Sep-30 22:46 150 22.2
2020-Sep-30 22:16 274 22.2
2020-Sep-30 22:01 152 0 gusting 1 22.2
2020-Sep-30 21:46 152 21.7
2020-Sep-30 21:30 152 21.7
2020-Sep-30 21:16 152 21.7
2020-Sep-30 21:01 152 21.1
2020-Sep-30 20:46 152 21.1
2020-Sep-30 20:31 152 21.1
2020-Sep-30 20:17 152 0 gusting 2 21.1
2020-Sep-30 20:01 152 20.6
2020-Sep-30 19:45 152 19.4
2020-Sep-30 19:30 152 18.9
2020-Sep-30 19:16 152 18.3
2020-Sep-30 19:00 152 18.3
2020-Sep-30 18:45 152 1 gusting 4 17.8
2020-Sep-30 18:30 152 17.2
2020-Sep-30 18:15 152 16.7
2020-Sep-30 18:02 152 16.1
2020-Sep-30 17:46 152 15.6
2020-Sep-30 17:31 152 15.0
2020-Sep-30 17:17 152 13.3
2020-Sep-30 17:01 152 12.2
2020-Sep-30 16:47 152 10.6
2020-Sep-30 16:31 152 10.0
2020-Sep-30 16:16 152 9.4
2020-Sep-30 16:00 152 9.4
2020-Sep-30 15:46 152 8.9
2020-Sep-30 15:31 152 8.9
2020-Sep-30 15:15 152 8.3
2020-Sep-30 15:00 152 8.3
2020-Sep-30 14:45 152 8.3
2020-Sep-30 14:30 152 8.3
2020-Sep-30 14:16 152 8.9
2020-Sep-30 14:00 152 8.9
2020-Sep-30 13:45 152 8.9
2020-Sep-30 13:30 152 8.9
2020-Sep-30 13:15 152 8.9
2020-Sep-30 13:00 152 9.4
2020-Sep-30 12:45 152 9.4
2020-Sep-30 12:30 152 9.4
2020-Sep-30 12:15 152 9.4
2020-Sep-30 12:00 152 9.4
2020-Sep-30 11:47 152 10.0
2020-Sep-30 11:32 152 10.0
2020-Sep-30 11:17 152 10.0
2020-Sep-30 11:02 152 10.0
2020-Sep-30 10:47 152 10.0
2020-Sep-30 10:32 152 10.0
2020-Sep-30 10:16 152 10.0
2020-Sep-30 10:02 152 10.0
2020-Sep-30 09:47 152 10.6
2020-Sep-30 09:32 152 10.6
2020-Sep-30 09:17 152 10.6
2020-Sep-30 09:01 152 10.6
2020-Sep-30 08:46 152 11.1
2020-Sep-30 08:31 152 11.1
2020-Sep-30 08:16 152 11.1
2020-Sep-30 08:01 152 11.1
2020-Sep-30 07:46 152 11.7
2020-Sep-30 07:31 152 11.7
2020-Sep-30 07:16 152 12.2
2020-Sep-30 07:00 152 12.2
2020-Sep-30 06:46 152 12.2
2020-Sep-30 06:31 152 12.8
2020-Sep-30 06:15 152 12.8
2020-Sep-30 06:01 152 12.8
2020-Sep-30 05:45 152 13.3
2020-Sep-30 05:30 152 13.3
2020-Sep-30 05:16 152 13.3
2020-Sep-30 05:00 152 13.3
2020-Sep-30 04:46 152 13.9
2020-Sep-30 04:31 152 13.9
2020-Sep-30 04:15 152 14.4
2020-Sep-30 04:01 152 14.4
2020-Sep-30 03:45 152 15.0
2020-Sep-30 03:30 152 15.6
2020-Sep-30 03:15 152 16.1
2020-Sep-30 03:00 152 16.7
2020-Sep-30 02:45 152 17.2
2020-Sep-30 02:30 152 17.8
2020-Sep-30 02:15 152 18.3
2020-Sep-30 02:00 152 18.9
2020-Sep-30 01:45 152 19.4
2020-Sep-30 01:30 152 20.6
2020-Sep-30 01:15 152 21.1
2020-Sep-30 01:00 152 22.2
2020-Sep-30 00:45 152 22.2
2020-Sep-30 00:30 152 22.8
2020-Sep-30 00:15 152 22.2
2020-Sep-30 00:01 152 22.8
2020-Sep-29 23:45 152 22.8
2020-Sep-29 23:30 152 23.9
2020-Sep-29 23:15 152 23.3
2020-Sep-29 23:00 152 23.3
2020-Sep-29 22:45 152 23.9
2020-Sep-29 22:30 152 23.9
2020-Sep-29 22:15 152 23.9
2020-Sep-29 22:00 084 23.9
2020-Sep-29 21:45 189 23.9
2020-Sep-29 21:30 131 2 gusting 6 24.4
2020-Sep-29 21:15 140 23.9
2020-Sep-29 20:47 123 23.9
2020-Sep-29 20:32 136 23.3
2020-Sep-29 20:16 125 23.9
2020-Sep-29 20:01 034 23.3
2020-Sep-29 19:45 150 0 gusting 4 22.8
2020-Sep-29 19:31 019 0 gusting 3 21.7
2020-Sep-29 19:17 013 0 gusting 4 21.1
2020-Sep-29 19:01 129 20.6
2020-Sep-29 18:45 129 20.0
2020-Sep-29 18:31 005 18.9
2020-Sep-29 18:16 005 18.3
2020-Sep-29 18:01 005 18.3
2020-Sep-29 17:46 070 17.8
2020-Sep-29 17:30 070 16.7
2020-Sep-29 17:15 070 15.6
2020-Sep-29 17:00 070 13.9
2020-Sep-29 16:45 070 11.7
2020-Sep-29 16:32 070 10.0
2020-Sep-29 16:02 070 8.9